Weather History for Barter Island, AK

Change the Weather History Date:

Thursday, March 7, 2013

  Actual Average Record
Temperature  
Mean Temperature -10 °F -  
Max Temperature 1 °F -4 °F 17 °F (2002)
Min Temperature -20 °F -17 °F -41 °F (2004)
Degree Days  
Heating Degree Days 74    
Moisture  
Dew Point -13 °F    
Average Humidity 83    
Maximum Humidity 92    
Minimum Humidity 76    
Precipitation  
Precipitation 0.00 in - - ()
Sea Level Pressure  
Sea Level Pressure 30.01 in    
Wind  
Wind Speed 16 mph (ESE)    
Max Wind Speed 34 mph    
Max Gust Speed 38 mph    
Visibility 5 miles    
Events Fog , Snow    
Averages and records for this station are not official NWS values.
T = Trace of Precipitation, MM = Missing Value Source: NWS Daily Summary

Daily Weather History Graph

Daily Weather History Graph

Search for Another Location

Airport:

Trip Planner

Search our weather history database for the weather conditions in past years. The results will help you decide how hot, cold, wet, or windy it might be!

Date:

Astronomy

Mar. 07, 2013 Rise Set
Actual Time 7:31 AM AKST 6:00 PM AKST
Civil Twilight 6:30 AM AKST 7:02 PM AKST
Nautical Twilight 5:18 AM AKST 8:14 PM AKST
Astronomical Twilight 3:58 AM AKST 9:36 PM AKST
Moon 7:00 AM AKST (3/7) 11:43 AM AKST (3/7)
Length of Visible Light 12h 31m
Length of Day
10h 29m
Waning Crescent, 19% of the Moon is Illuminated
Mar 7
Waning Crescent
Mar 11
New
Mar 19
First Quarter
Mar 27
Full
Apr 2
Last Quarter

Hourly Weather History & Observations

Time (AKST) Temp. Windchill Dew Point Humidity Pressure Visibility Wind Dir Wind Speed Gust Speed Precip Events Conditions
12:01 AM -17.0 °F -36.1 °F -20.9 °F 82% 30.04 in 6.0 mi ESE 9.2 mph - N/A   Clear
1:01 AM -18.9 °F -39.8 °F -23.1 °F 81% 30.06 in 10.0 mi ESE 10.4 mph - N/A   Clear
2:01 AM -18.9 °F -38.6 °F -24.0 °F 78% 30.06 in 10.0 mi ESE 9.2 mph - N/A   Scattered Clouds
2:14 AM -18.4 °F -37.9 °F -23.8 °F 76% 30.07 in 10.0 mi ESE 9.2 mph - N/A   Mostly Cloudy
2:29 AM -18.4 °F -36.6 °F -23.8 °F 76% 30.06 in 10.0 mi ESE 8.1 mph - N/A   Scattered Clouds
3:01 AM -18.9 °F -40.8 °F -23.1 °F 81% 30.06 in 10.0 mi East 11.5 mph - N/A   Clear
4:01 AM -18.0 °F -41.6 °F -23.1 °F 78% 30.06 in 10.0 mi ESE 13.8 mph - N/A   Clear
5:01 AM -17.0 °F -37.3 °F -22.0 °F 78% 30.08 in 10.0 mi ESE 10.4 mph - N/A   Partly Cloudy
6:01 AM -20.9 °F -42.2 °F -26.0 °F 77% 30.07 in 10.0 mi ESE 10.4 mph - N/A   Clear
7:01 AM -20.9 °F -44.3 °F -26.0 °F 77% 30.08 in 10.0 mi ESE 12.7 mph - N/A   Clear
8:01 AM -18.9 °F -44.4 °F -24.0 °F 78% 30.07 in 10.0 mi ESE 16.1 mph - N/A   Clear
9:01 AM -20.0 °F -44.1 °F -25.1 °F 78% 30.07 in 10.0 mi ESE 13.8 mph - N/A   Clear
10:01 AM -20.0 °F -45.0 °F -25.1 °F 78% 30.08 in 10.0 mi East 15.0 mph - N/A   Clear
11:01 AM -17.0 °F -41.9 °F -22.0 °F 78% 30.09 in 10.0 mi East 16.1 mph - N/A   Clear
12:01 PM -16.1 °F -41.4 °F -20.9 °F 79% 30.06 in 6.0 mi East 17.3 mph - N/A   Haze
1:01 PM -15.0 °F -38.5 °F -18.9 °F 82% 30.07 in 8.0 mi East 15.0 mph - N/A   Clear
2:01 PM -13.0 °F -36.0 °F -17.0 °F 82% 30.07 in 9.0 mi ESE 15.0 mph - 0.00 in   Clear
3:01 PM -9.9 °F -34.2 °F -14.1 °F 82% 30.03 in 4.0 mi East 18.4 mph - 0.00 in Snow Light Snow
3:13 PM -9.4 °F -32.1 °F -13.0 °F 84% 30.03 in 2.5 mi ESE 16.1 mph - 0.00 in Snow Light Snow
3:38 PM -7.6 °F -28.3 °F -11.2 °F 84% 30.02 in 2.0 mi ESE 13.8 mph - 0.00 in   Scattered Clouds
3:41 PM -7.6 °F -29.1 °F -11.2 °F 84% 30.02 in 2.0 mi ESE 15.0 mph - 0.00 in   Mostly Cloudy
3:59 PM -9.4 °F -31.4 °F -13.0 °F 84% 30.02 in 1.8 mi SE 15.0 mph - 0.00 in   Overcast
4:01 PM -9.0 °F -30.9 °F -13.0 °F 83% 30.01 in 1.8 mi SE 15.0 mph - 0.00 in   Overcast
4:30 PM -4.0 °F -28.6 °F -5.8 °F 92% 30.00 in 0.8 mi East 23.0 mph 28.8 mph 0.00 in   Overcast
5:01 PM -2.2 °F -27.1 °F -5.8 °F 85% 30.00 in 0.5 mi East 25.3 mph - N/A Fog , Snow Light Snow
5:16 PM -2.2 °F -26.7 °F -5.8 °F 85% 30.00 in 0.8 mi East 24.2 mph - N/A   Mist
5:33 PM -2.2 °F -25.2 °F -5.8 °F 85% 30.00 in 1.0 mi East 20.7 mph - N/A   Clear
5:59 PM -2.2 °F -27.1 °F -5.8 °F 85% 30.00 in 0.8 mi East 25.3 mph - N/A   Mist
6:01 PM -2.0 °F -26.9 °F -5.1 °F 87% 30.00 in 0.8 mi East 25.3 mph - N/A   Mist
6:24 PM -2.2 °F -28.0 °F -5.8 °F 85% 29.98 in 0.5 mi East 27.6 mph - 0.00 in Fog , Snow Light Snow
6:49 PM -2.2 °F -26.7 °F -5.8 °F 85% 29.97 in 1.0 mi East 24.2 mph - 0.00 in Snow Light Snow
7:01 PM -2.2 °F -26.2 °F -5.8 °F 85% 29.97 in 1.2 mi ESE 23.0 mph - 0.00 in   Mostly Cloudy
7:07 PM -2.0 °F -26.9 °F -5.1 °F 87% 29.96 in 1.5 mi East 25.3 mph - 0.00 in   Mostly Cloudy
7:36 PM -0.4 °F -25.2 °F -4.0 °F 85% 29.94 in 0.8 mi East 26.5 mph - 0.00 in Snow Light Snow
8:01 PM -0.0 °F -25.5 °F -2.9 °F 88% 29.93 in 0.8 mi East 28.8 mph - 0.00 in Snow Light Snow
8:30 PM -0.4 °F -25.2 °F -2.2 °F 92% 29.94 in 1.0 mi East 26.5 mph - 0.00 in Snow Light Snow
9:01 PM -0.0 °F -24.7 °F -2.9 °F 88% 29.93 in 0.8 mi ESE 26.5 mph - 0.00 in Snow Light Snow
9:25 PM -0.4 °F -27.1 °F -2.2 °F 92% 29.91 in 0.5 mi ESE 32.2 mph 38.0 mph 0.00 in Fog , Snow Light Snow
9:46 PM -0.4 °F -27.5 °F -2.2 °F 92% 29.89 in 0.5 mi East 33.4 mph - 0.00 in Fog , Snow Light Snow
10:01 PM 1.0 °F -25.8 °F -2.0 °F 87% 29.88 in 0.5 mi East 34.5 mph - 0.00 in Fog , Snow Light Snow
11:01 PM -0.0 °F -27.0 °F -2.9 °F 88% 29.87 in 0.5 mi ESE 33.4 mph - 0.00 in Fog , Snow Snow